(401530) = 2004 EO64 = 2013 ES93 = 2010 LF122 = 2008 AE47

Discovered at Socorro on 2004-03-14 by LINEAR.

Orbit

Orbit type: Main Belt

Note: WebGL enabled browser required.

epoch2023-09-13.0
epoch JD2460200.5
perihelion date2022-07-09.11179
perihelion JD2459769.61179
argument of perihelion (°)101.44461
ascending node (°)105.43576
inclination (°)12.31037
eccentricity0.1570898
perihelion distance (AU)2.2905652
Tisserand w.r.t. Jupiter3.3
ΔV w.r.t. Earth (km/sec)10.2
semimajor axis (AU)2.7174485
mean anomaly (°)94.80396
mean daily motion (°/day)0.22001980
aphelion distance (AU)3.144
period (years)4.48
P-vector [x]-0.87022953
P-vector [y]-0.49243996
P-vector [z]0.01426366
Q-vector [x]0.44773144
Q-vector [y]-0.80263665
Q-vector [z]-0.39409513
absolute magnitude16.77
phase slope0.15
uncertainty0
referenceMPEC 2023-R130
observations used270
oppositions15
arc length (days)7119
first opposition used2004
last opposition used2023
residual rms (arc-secs)0.72
perturbers coarse indicatorM-v
perturbers precise indicator003Ek
first observation date used2004-03-14.0
last observation date used2023-09-10.0
computer nameMPCLINUX
JD of orbit computation2456909.242700
perihelion JD uncertainty (days)1.0801E-04
argument of perihelion uncertainty (°)3.1837E-05
ascending node uncertainty (°)2.0319E-05
inclination uncertainty (°)7.4054E-06
eccentricity uncertainty 4.0901E-08
perihelion distance uncertainty (AU)1.0488E-07
Minimum Orbit Intersection Distances (in AU)
for orbit epoch: 2460200.5, reference: E2023-RD0
Mercury1.86133
Venus1.58277
Earth1.32234
Mars0.761
Jupiter1.95915
Saturn6.0839
Uranus16.0125
Neptune26.7499

Observations

263 total observations over interval: 2004 03 14.27772 – 2023 09 10.319102
These data are available for download (format description).

Date (UT) J2000 RA J2000 Dec Magn Location Ref
2004 03 14.27772 11 10 35.31 +24 44 56.7 19.8   704 – Lincoln Laboratory ETS, New Mexico MPS 103225
2004 03 14.28845 11 10 34.68 +24 45 01.3 20.2   704 – Lincoln Laboratory ETS, New Mexico MPS 103225
2004 03 14.29921 11 10 34.24 +24 45 04.4 20.0   704 – Lincoln Laboratory ETS, New Mexico MPS 103225
2004 03 14.30993 11 10 33.65 +24 45 09.3 19.5   704 – Lincoln Laboratory ETS, New Mexico MPS 103225
2004 03 14.32069 11 10 33.06 +24 45 12.6 20.2   704 – Lincoln Laboratory ETS, New Mexico MPS 103225
2004 03 18.20818 11 07 28.40 +25 07 19.1 19.5 V 703 – Catalina Sky Survey MPS 103225
2004 03 18.21963 11 07 27.80 +25 07 22.0 20.1 V 703 – Catalina Sky Survey MPS 103225
2004 03 18.23104 11 07 27.29 +25 07 25.7 19.8 V 703 – Catalina Sky Survey MPS 103225
2004 03 18.24250 11 07 26.74 +25 07 29.6 20.3 V 703 – Catalina Sky Survey MPS 103225
2005 07 11.34168 20 42 31.50 -23 15 38.1 21.0 V 691 – Steward Observatory, Kitt Peak-Spacewatch MPS 461733
2005 07 11.36246 20 42 30.47 -23 15 48.2 20.7 V 691 – Steward Observatory, Kitt Peak-Spacewatch MPS 461733
2005 07 11.37984 20 42 29.62 -23 15 56.5 20.8 V 691 – Steward Observatory, Kitt Peak-Spacewatch MPS 461733
2008 01 11.12452 06 56 55.26 +22 42 16.5 20.3 V 691 – Steward Observatory, Kitt Peak-Spacewatch MPS 234419
2008 01 11.14217 06 56 54.16 +22 42 22.5 20.2 V 691 – Steward Observatory, Kitt Peak-Spacewatch MPS 234419
2008 01 11.15982 06 56 53.03 +22 42 29.0 20.4 V 691 – Steward Observatory, Kitt Peak-Spacewatch MPS 234419
2008 01 13.20294 06 54 48.88 +22 54 05.0 20.4 V G96 – Mt. Lemmon Survey MPS 234419
2008 01 13.20799 06 54 48.60 +22 54 06.8 20.4 V G96 – Mt. Lemmon Survey MPS 234419
2008 01 13.21302 06 54 48.27 +22 54 08.6 20.4 V G96 – Mt. Lemmon Survey MPS 234419
2008 01 13.21802 06 54 47.98 +22 54 10.2 20.3 V G96 – Mt. Lemmon Survey MPS 234419
2009 05 26.28260 16 17 04.92 -06 45 33.6 19.5 V 703 – Catalina Sky Survey MPS 461733
2009 05 26.29043 16 17 04.56 -06 45 34.0 19.3 V 703 – Catalina Sky Survey MPS 461733
2009 05 26.29816 16 17 04.05 -06 45 35.7 18.9 V 703 – Catalina Sky Survey MPS 461733
2009 05 26.30608 16 17 03.62 -06 45 36.7 20.0 V 703 – Catalina Sky Survey MPS 461733
2009 06 01.25402 16 11 33.36 -07 04 00.2 19.1 V 703 – Catalina Sky Survey MPS 461733
2009 06 01.26005 16 11 33.07 -07 04 02.6 19.1 V 703 – Catalina Sky Survey MPS 461733
2009 06 01.26603 16 11 32.74 -07 04 02.4 18.8 V 703 – Catalina Sky Survey MPS 461733
2009 06 01.27205 16 11 32.28 -07 04 02.4 19.3 V 703 – Catalina Sky Survey MPS 461733
2010 06 14.67435 23 50 14.85 -11 33 44.8   C51 – WISE MPS 335356
2010 06 14.674354 23 50 14.82 -11 33 44.8   C51 – WISE MPS 335356
2010 06 14.740442 23 50 17.79 -11 33 43.0   C51 – WISE MPS 335356
2010 06 14.740569 23 50 17.79 -11 33 45.9   C51 – WISE MPS 335356
2010 06 14.806657 23 50 20.97 -11 33 42.5   C51 – WISE MPS 335356
2010 06 14.872745 23 50 24.12 -11 33 42.7   C51 – WISE MPS 335356
2010 06 14.872873 23 50 24.07 -11 33 42.2   C51 – WISE MPS 335356
2010 06 14.938962 23 50 27.276 -11 33 42.23   C51 – WISE MPS 904316
2010 06 15.005050 23 50 30.21 -11 33 43.0   C51 – WISE MPS 335356
2010 06 15.071265 23 50 33.42 -11 33 41.5   C51 – WISE MPS 335356
2010 06 15.534265 23 50 55.12 -11 33 42.1   C51 – WISE MPS 335356
2011 12 01.33562 04 08 45.645 +08 40 06.20 23.3 w F51 – Pan-STARRS 1, Haleakala MPS 461733
2011 12 01.34948 04 08 44.842 +08 40 06.54 23.1 w F51 – Pan-STARRS 1, Haleakala MPS 461733
2011 12 01.36336 04 08 44.040 +08 40 06.74 23.2 w F51 – Pan-STARRS 1, Haleakala MPS 461733
2011 12 01.37724 04 08 43.230 +08 40 06.97 23.2 w F51 – Pan-STARRS 1, Haleakala MPS 461733
2013 02 14.33810 11 44 49.84 +19 26 34.7 19.3 V 703 – Catalina Sky Survey MPS 461733
2013 02 14.34976 11 44 49.56 +19 26 42.1 19.1 V 703 – Catalina Sky Survey MPS 461733
2013 02 14.37311 11 44 48.84 +19 26 57.3 19.1 V 703 – Catalina Sky Survey MPS 461733
2013 03 02.37331 11 34 58.72 +22 11 05.1 19.6 V 703 – Catalina Sky Survey MPS 460686
2013 03 02.37935 11 34 58.51 +22 11 07.8 19.4 V 703 – Catalina Sky Survey MPS 460686
2013 03 02.38544 11 34 58.15 +22 11 12.6 19.8 V 703 – Catalina Sky Survey MPS 460686
2013 03 02.39154 11 34 57.75 +22 11 15.4 20.9 V 703 – Catalina Sky Survey MPS 460686
2013 03 06.39451 11 31 50.756 +22 47 55.23 20.1 g F51 – Pan-STARRS 1, Haleakala MPS 461733
2013 03 06.40618 11 31 50.176 +22 48 01.56 20.3 g F51 – Pan-STARRS 1, Haleakala MPS 461733
2013 03 06.53973 11 31 43.422 +22 49 11.56 19.7 r F51 – Pan-STARRS 1, Haleakala MPS 461733
2013 03 06.55078 11 31 42.861 +22 49 17.33 19.7 r F51 – Pan-STARRS 1, Haleakala MPS 461733
2013 03 11.42086 11 27 44.53 +23 29 15.7 19.5 V 703 – Catalina Sky Survey MPS 460686
2013 03 11.42776 11 27 44.24 +23 29 18.4 19.9 V 703 – Catalina Sky Survey MPS 460686
2013 03 11.43470 11 27 43.81 +23 29 20.5 20.0 V 703 – Catalina Sky Survey MPS 460686
2013 03 11.44164 11 27 43.59 +23 29 23.9 19.4 V 703 – Catalina Sky Survey MPS 460686
2014 07 08.44288 21 00 07.308 -22 41 29.49 20.1 i F51 – Pan-STARRS 1, Haleakala MPS 523389
2014 07 08.45487 21 00 06.831 -22 41 35.34 20.2 i F51 – Pan-STARRS 1, Haleakala MPS 523389
2014 07 08.46686 21 00 06.330 -22 41 41.32 20.2 i F51 – Pan-STARRS 1, Haleakala MPS 523389
2014 07 25.43259 20 46 39.453 -24 58 46.72 20.4 w F51 – Pan-STARRS 1, Haleakala MPS 525508
2014 07 25.44456 20 46 38.791 -24 58 52.30 20.3 w F51 – Pan-STARRS 1, Haleakala MPS 525508
2014 07 25.45657 20 46 38.120 -24 58 58.01 20.1 w F51 – Pan-STARRS 1, Haleakala MPS 525508
2014 07 25.46856 20 46 37.446 -24 59 03.65 20.2 w F51 – Pan-STARRS 1, Haleakala MPS 525508
2014 07 27.43215 20 44 51.834 -25 14 11.32 20.3 w F51 – Pan-STARRS 1, Haleakala MPS 525508
2014 07 27.44408 20 44 51.163 -25 14 16.75 20.3 w F51 – Pan-STARRS 1, Haleakala MPS 525508
2014 07 27.45597 20 44 50.495 -25 14 22.24 20.2 w F51 – Pan-STARRS 1, Haleakala MPS 525508
2014 07 27.46787 20 44 49.824 -25 14 27.67 20.2 w F51 – Pan-STARRS 1, Haleakala MPS 525508
2014 07 29.41230 20 43 04.407 -25 29 06.01 20.3 w F51 – Pan-STARRS 1, Haleakala MPS 525508
2014 07 29.42355 20 43 03.775 -25 29 11.16 20.2 w F51 – Pan-STARRS 1, Haleakala MPS 525508
2014 07 29.43480 20 43 03.138 -25 29 16.09 20.2 w F51 – Pan-STARRS 1, Haleakala MPS 525508
2014 07 29.43943 20 43 02.879 -25 29 18.16 20.2 w F51 – Pan-STARRS 1, Haleakala MPS 525508
2014 07 29.44605 20 43 02.503 -25 29 21.08 20.2 w F51 – Pan-STARRS 1, Haleakala MPS 525508
2014 07 29.45066 20 43 02.243 -25 29 23.19 20.4 w F51 – Pan-STARRS 1, Haleakala MPS 525508
2014 07 30.44516 20 42 08.115 -25 36 43.54 20.2 w F51 – Pan-STARRS 1, Haleakala MPS 525508
2014 07 30.45656 20 42 07.468 -25 36 48.57 20.2 w F51 – Pan-STARRS 1, Haleakala MPS 525508
2014 07 30.46798 20 42 06.813 -25 36 53.61 20.1 w F51 – Pan-STARRS 1, Haleakala MPS 525508
2014 08 01.46468 20 40 18.134 -25 51 17.85 19.7 w F51 – Pan-STARRS 1, Haleakala MPS 526521
2014 08 01.47592 20 40 17.510 -25 51 22.41 19.7 w F51 – Pan-STARRS 1, Haleakala MPS 526521
2014 08 22.40256 20 23 20.127 -27 48 40.73 20.9 w F51 – Pan-STARRS 1, Haleakala MPS 529689
2014 08 22.41400 20 23 19.658 -27 48 43.37 21.0 w F51 – Pan-STARRS 1, Haleakala MPS 529689
2015 10 13.41118 02 14 30.551 -05 05 38.04 21.2 w F51 – Pan-STARRS 1, Haleakala MPS 635560
2015 10 13.42533 02 14 29.869 -05 05 42.11 21.4 w F51 – Pan-STARRS 1, Haleakala MPS 635560
2015 10 13.45353 02 14 28.477 -05 05 50.38 21.2 w F51 – Pan-STARRS 1, Haleakala MPS 635560
2015 10 15.45624 02 12 52.133 -05 15 26.91 21.1 w F51 – Pan-STARRS 1, Haleakala MPS 635560
2015 10 15.49858 02 12 50.012 -05 15 38.93 21.1 w F51 – Pan-STARRS 1, Haleakala MPS 635560
2017 01 03.99494 07 16 41.57 +22 30 55.2 20.4   J43 – Oukaimeden Observatory, Marrakech MPS 757493
2017 01 04.00339 07 16 41.09 +22 30 58.5 19.6   J43 – Oukaimeden Observatory, Marrakech MPS 757493
2017 01 04.01185 07 16 40.57 +22 31 01.9 20.0   J43 – Oukaimeden Observatory, Marrakech MPS 757493
2017 01 04.02029 07 16 40.05 +22 31 04.9 20.2   J43 – Oukaimeden Observatory, Marrakech MPS 757493
2017 01 05.23453 07 15 27.08 +22 38 32.7 20.1 V G96 – Mt. Lemmon Survey MPS 758905
2017 01 05.23882 07 15 26.80 +22 38 33.5   G96 – Mt. Lemmon Survey MPS 758905
2017 01 05.24309 07 15 26.53 +22 38 34.4 19.4 V G96 – Mt. Lemmon Survey MPS 758905
